User: anonymous
Location: ASU Dark Sky Observatory
(36.2504°N, 81.4125°W)
Time: 13:30:51
(UTC-04:00)
Language:

ETS-7 - Orbit

View from above orbital plane
View from above orbital plane
View from above satellite
View from above satellite

Ground track
Ground track

The orbit data is extracted from the following two-line orbital elements,

1 25064U 97074B   14244.78570773  .00016272  00000-0  27407-3 0  2391
2 25064 034.9624 126.3705 0002601 035.7321 023.0956 15.50774372933068
Epoch (UTC): 01 September 2014 18:51:25
Eccentricity: 0.0002601
inclination: 34.9624°
perigee height: 413 km
apogee height: 416 km
right ascension of ascending node: 126.3705°
argument of perigee: 35.7321°
revolutions per day: 15.50774372
mean anomaly at epoch: 23.0956°
orbit number at epoch: 93306

The dashed part of the orbit path shows where the satellite is in the earth's shadow,  

DLR